[[{"header":{"parameterUnit":"m.s-1","parameterCategory":1,"la1":30.2992,"la2":30.254,"lo1":-89.0895,"lo2":-89.0443,"dy":0.0025,"dx":0.0025,"nx":19,"ny":19,"refTime":"2026-04-07T21:00:00:Z","depth":0,"parameterNumber":2,"parameterNumberName":"U-component_of_WINDS"},"data":[0,0,0,-3.9296,-3.9298,-3.9382,-3.9382,-3.9512,-3.9514,0,0,0,0,0,0,0,0,0,0,0,-3.9286,-3.9287,-3.9296,-3.9299,-3.9382,-3.9382,-3.9512,-3.9514,0,0,0,0,0,0,0,0,0,0,0,-3.9285,-3.9287,-3.9288,-3.9299,-3.9382,-3.9382,-3.9512,-3.9441,0,0,0,0,0,0,0,0,0,0,-3.9356,-3.9359,-3.9286,-3.9288,-3.93,-3.9382,-3.9382,-3.9437,-3.9445,-3.9485,0,-3.9523,0,-3.9521,-3.9524,-3.9525,0,0,0,-3.9288,-3.9353,-3.9362,-3.9289,-3.9301,-3.9382,-3.9341,-3.9441,-3.9451,-3.9496,-3.9525,-3.9529,-3.9523,-3.9525,-3.9526,-3.9788,-3.979,0,0,-3.9284,-3.9308,-3.9356,-3.9369,-3.9357,-3.9339,-3.9344,-3.9446,-3.948,-3.9525,-3.9532,-3.9525,-3.9526,-3.9527,-3.9787,-3.9789,0,0,0,-3.9277,-3.9306,-3.9312,-3.9364,-3.9378,-3.9342,-3.9348,-3.9475,-3.9475,-3.9533,-3.9527,-3.9527,-3.9529,-3.9785,-3.9788,-3.9898,0,0,0,-3.9274,-3.9302,-3.9311,-3.9327,-3.9376,-3.9428,-3.9375,-3.9468,-3.9479,-3.9526,-3.9527,-3.953,-3.9783,-3.9786,-3.9891,-3.9947,0,0,0,-3.9275,-3.9302,-3.9319,-3.9328,-3.9364,-3.9425,-3.9431,-3.947,-3.9476,-3.9525,-3.9531,-3.9782,-3.9786,-3.9885,-3.9937,-4.0026,0,0,0,-3.9284,-3.9415,-3.9321,-3.9464,-3.9364,-3.9492,-3.943,-3.9524,-3.9579,-3.9528,-3.9783,-3.9787,-3.9883,-3.993,-4.0019,-4.0108,-4.0146,0,0,-3.9463,-3.9437,-3.9519,-3.9438,-3.9589,-3.9477,-3.9645,-3.9671,-3.9653,-3.9744,-3.975,-3.9893,-3.9936,-4.0025,-4.0346,-4.0377,0,0,0,-3.9584,-3.9645,-3.9679,-3.9732,-3.9755,-3.9781,-3.9779,-3.9788,-3.9865,-3.9705,-3.9947,-3.9972,-4.0023,-4.0064,-4.009,-4.0134,-3.9806,-3.9806,-3.9806,-3.9875,-3.9845,-3.9979,-3.996,-4.0012,-4.0008,-4.0049,-4.0061,-4.0014,-4.0072,-4.0101,-4.0299,-4.0349,-4.0368,-4.0414,-4.0142,-4.0142,-4.0142,-4.0143,-4.0137,-4.0219,-4.0153,-4.0261,-4.0228,-4.0318,-4.0319,-4.0283,-4.0363,-4.0275,-4.0319,-4.0228,-4.0403,-4.0441,-4.0151,-4.0149,-4.0148,-4.0147,-4.0147,-4.0327,-4.0361,-4.037,-4.0445,-4.0505,-4.0479,-4.0559,-4.0525,-4.0493,-4.0536,-4.0564,-4.0562,-4.0559,-4.0551,-4.0551,-4.0552,-4.0553,-4.0553,-4.0554,-4.0523,-4.0529,-4.0601,-4.0636,-4.0666,-4.0702,-4.0699,-4.0727,-4.0751,-4.072,-4.072,-4.067,-4.0424,-4.0365,-4.0564,-4.0562,-4.0561,-4.056,-4.0559,-4.0806,-4.0736,-4.0848,-4.0878,-4.0917,-4.0981,-4.0935,-4.0997,-4.1015,-4.1056,-4.0995,-4.0818,-4.079,-4.0769,-4.072,-4.0999,-4.0999,-4.0999,-4.0999,-4.097,-4.0951,-4.1058,-4.1109,-4.1154,-4.1124,-4.1252,-4.1251,-4.1238,-4.1248,-4.1202,-4.1133,-4.1113,-4.1097,-4.1069,-4.1023,-4.1373,-4.1373,-4.1374,-4.1144,-4.1128,-4.1244,-4.1231,-4.1258,-4.1283,-4.1403,-4.1465,-4.1436,-4.1388,-4.1256,-4.124,-4.1128,-4.1093,-4.1047,-4.1004,-4.0919,0,0]},{"header":{"parameterUnit":"m.s-1","parameterCategory":1,"la1":30.2992,"la2":30.254,"lo1":-89.0895,"lo2":-89.0443,"dy":0.0025,"dx":0.0025,"nx":19,"ny":19,"refTime":"2026-04-07T21:00:00:Z","depth":0,"parameterNumber":3,"parameterNumberName":"V-component_of_WINDS"},"data":[0,0,0,-3.8396,-3.8397,-3.8417,-3.8417,-3.8459,-3.846,0,0,0,0,0,0,0,0,0,0,0,-3.8401,-3.8401,-3.8396,-3.8397,-3.8417,-3.8417,-3.8459,-3.846,0,0,0,0,0,0,0,0,0,0,0,-3.84,-3.8401,-3.8402,-3.8397,-3.8417,-3.8417,-3.8459,-3.8438,0,0,0,0,0,0,0,0,0,0,-3.8415,-3.843,-3.8401,-3.8402,-3.8397,-3.8417,-3.8417,-3.8437,-3.8439,-3.8457,0,-3.8476,0,-3.8468,-3.8463,-3.8464,0,0,0,-3.8389,-3.8428,-3.8424,-3.8402,-3.8398,-3.8417,-3.8406,-3.8438,-3.8441,-3.8461,-3.8476,-3.8477,-3.8469,-3.8464,-3.8464,-3.8593,-3.8594,0,0,-3.8388,-3.841,-3.8422,-3.8426,-3.8424,-3.8405,-3.8407,-3.8439,-3.8458,-3.8476,-3.8478,-3.847,-3.8464,-3.8465,-3.8592,-3.8593,0,0,0,-3.839,-3.8409,-3.8404,-3.8425,-3.8427,-3.8406,-3.8408,-3.8456,-3.8453,-3.8478,-3.847,-3.8465,-3.8465,-3.8591,-3.8592,-3.866,0,0,0,-3.8389,-3.841,-3.8404,-3.8418,-3.8427,-3.8442,-3.8424,-3.8451,-3.8454,-3.847,-3.8465,-3.8466,-3.859,-3.8591,-3.8656,-3.8689,0,0,0,-3.8396,-3.8411,-3.8417,-3.8419,-3.8428,-3.8441,-3.8439,-3.8451,-3.8449,-3.8464,-3.8466,-3.8589,-3.8591,-3.8652,-3.8683,-3.8729,0,0,0,-3.8409,-3.8478,-3.8419,-3.8493,-3.8428,-3.8483,-3.8439,-3.8479,-3.8499,-3.8465,-3.859,-3.8592,-3.8651,-3.8679,-3.8725,-3.8772,-3.8793,0,0,-3.8508,-3.8491,-3.8533,-3.848,-3.8551,-3.8478,-3.8559,-3.8558,-3.854,-3.8576,-3.8579,-3.8658,-3.8683,-3.8728,-3.8906,-3.8923,0,0,0,-3.8571,-3.8602,-3.8616,-3.8636,-3.8637,-3.8639,-3.8623,-3.8622,-3.8652,-3.8563,-3.8686,-3.87,-3.8726,-3.8747,-3.8762,-3.8783,-3.8603,-3.8603,-3.8602,-3.8743,-3.8715,-3.8782,-3.8757,-3.8778,-3.876,-3.8773,-3.8769,-3.8736,-3.8766,-3.8776,-3.8887,-3.8913,-3.8924,-3.8946,-3.8799,-3.8799,-3.8799,-3.8799,-3.8886,-3.8924,-3.8877,-3.8925,-3.8896,-3.8936,-3.8921,-3.8896,-3.8929,-3.8877,-3.8899,-3.8845,-3.8944,-3.8962,-3.8804,-3.8803,-3.8803,-3.8802,-3.8802,-3.8995,-3.9009,-3.9006,-3.9032,-3.9055,-3.9027,-3.9061,-3.9032,-3.9006,-3.9027,-3.9035,-3.9034,-3.903,-3.9033,-3.9034,-3.9034,-3.9034,-3.9035,-3.9035,-3.911,-3.9105,-3.9137,-3.9142,-3.9151,-3.9159,-3.9141,-3.9149,-3.9151,-3.9127,-3.9127,-3.9091,-3.8959,-3.8926,-3.9041,-3.904,-3.9039,-3.9038,-3.9038,-3.9265,-3.9225,-3.9275,-3.9283,-3.9287,-3.9311,-3.9274,-3.9293,-3.9295,-3.9313,-3.9272,-3.9178,-3.9159,-3.9147,-3.9119,-3.9277,-3.9277,-3.9277,-3.9277,-3.9358,-3.9345,-3.9388,-3.9404,-3.9416,-3.9388,-3.9444,-3.943,-3.941,-3.941,-3.9383,-3.9344,-3.9333,-3.932,-3.9304,-3.9278,-3.9473,-3.9473,-3.9474,-3.9452,-3.9438,-3.9492,-3.9471,-3.9471,-3.9472,-3.9524,-3.9544,-3.9513,-3.9481,-3.9409,-3.9401,-3.9338,-3.9319,-3.9286,-3.9263,-3.9215,0,0]}]]